Simultaneous Nadir Overpasses (SNOs) Predictions

Prediction of SNOs between GOES-17 and METOP-A Satellite Orbit:

Table of predicted SNOs for the next 14.0 days since TLE Epoch: 5/15/2020
Index Date Time (GOES-17) GOES-17 Lat,Lon METOP-A Lat,Lon Distance(km) Time Diff (sec)
1 05/16/2020 06:08:16 -0.03,-137.18 -0.97,-141.53 495.67 80
2 05/17/2020 05:50:15 -0.03,-137.17 0.08,-136.54 71.21 80
3 05/18/2020 18:06:27 0.03,-137.18 0.89,-141.14 451.56 80
4 05/19/2020 17:48:28 0.02,-137.17 -0.22,-136.17 114.97 80
5 05/21/2020 06:04:48 -0.02,-137.14 -0.80,-140.79 415.78 80
6 05/22/2020 05:46:48 -0.02,-137.12 0.25,-135.80 150.22 80
7 05/23/2020 18:03:00 0.01,-137.12 0.72,-140.40 374.08 80
8 05/24/2020 17:45:00 0.01,-137.10 -0.33,-135.41 191.33 80
9 05/26/2020 06:01:20 -0.00,-137.05 -0.69,-140.04 341.15 80
10 05/27/2020 05:43:20 0.00,-137.03 0.43,-135.06 223.73 80
11 05/28/2020 17:59:33 -0.00,-137.01 0.55,-139.67 302.11 80
12 05/29/2020 17:41:32 -0.00,-136.98 -0.50,-134.67 262.52 80




NCC Satellite Simultaneous Nadir Overpasses (SNOs) Prediction Service
